Location: Buckland
(65.9785°N, 161.1281°W)
Time: 05:35:27
(UTC+00:00)

Transit 2A Rocket - Pass Details

Date: 30 November 2020
Orbit: 592 x 910 km, 66.7° (Epoch: 21 January)

Event Time Altitude Azimuth Distance (km) Brightness Sun altitude
Exits shadow 17:57:36 15° 286° (WNW) 1,991 6.5 -11.7°
Maximum altitude 18:02:02 86° 199° (SSW) 747 4.9 -11.3°
Drops below altitude 10° 18:06:57 10° 110° (ESE) 2,145 8.8 -10.9°
Sets 18:09:09 0° 110° (ESE) 3,014 10.1 -10.7°
